Home   Weather   Sitka   Past weeks

Flag for USA Past Weather in Sitka, Alaska, USA — Yesterday and Last 2 Weeks

Now
47 °F

Sunny.


Feels Like: 44 °F
Forecast: 41 / 55 °F
Wind: 6 mph from Southeast

Location: Sitka Airport

Current Time: Oct 1, 2016 at 9:17:26 AM

Latest Report: Oct 1, 2016 at 7:53 AM


Visibility: 10 mi

Pressure: 30.09 "Hg

Humidity: 50%

Dew Point: 29 °F

Location of SitkaLocation

Past Weather in Sitka — Graph

°F

Sitka Temperature Yesterday

Maximum temperature yesterday: 59 °F (at 2:53 PM)
Minimum temperature yesterday: 45 °F (at 10:53 PM)
Average temperature yesterday: 54 °F

High & Low Weather Summary for the Past Weeks

 TemperatureHumidityPressure
High60 °F (Sep 19, 2:53 PM)96% (Sep 20, 4:53 AM)30.30 "Hg (Sep 20, 4:53 AM)
Low42 °F (Sep 29, 3:53 AM)26% (Sep 30, 11:53 AM)29.39 "Hg (Sep 22, 9:53 AM)
Average52 °F78%29.95 "Hg
* Reported Sep 16 7:53 AM — Oct 1 7:53 AM, Sitka, Weather by CustomWeather, © 2016

Note: Actual official high and low records may vary slightly from our data, if they occured in-between our weather recording intervals... More about our weather records

Advertising

Sitka Weather History for the Previous 24 Hours

Scroll right to see more
 ConditionsComfort  
Time TempWeatherWind HumidityBarometerVisibility
7:53 AM
Sat, Oct 1
47 °FSunny.6 mph50%30.09 "Hg10 mi
6:53 AM44 °FClear.5 mph55%30.09 "Hg10 mi
5:53 AM43 °FClear.5 mph60%30.09 "Hg10 mi
4:53 AM45 °FClear.7 mph60%30.10 "Hg10 mi
3:53 AM49 °FClear.No wind48%30.11 "Hg10 mi
2:53 AM48 °FClear.3 mph46%30.11 "Hg10 mi
1:53 AM50 °FClear.3 mph46%30.12 "Hg10 mi
12:53 AM48 °FClear.6 mph54%30.13 "Hg10 mi
11:53 PM
Fri, Sep 30
46 °FClear.3 mph58%30.12 "Hg10 mi
10:53 PM45 °FClear.5 mph58%30.12 "Hg10 mi
9:53 PM50 °FClear.No wind46%30.12 "Hg10 mi
8:53 PM50 °FClear.3 mph43%30.13 "Hg10 mi
7:53 PM52 °FClear.5 mph38%30.13 "Hg10 mi
6:53 PM54 °FClear.7 mph33%30.12 "Hg10 mi
5:53 PM57 °FSunny.7 mph29%30.12 "Hg10 mi
4:53 PM58 °FSunny.10 mph27%30.12 "Hg10 mi
3:53 PM59 °FSunny.13 mph26%30.12 "Hg10 mi
2:53 PM59 °FSunny.N/A26%30.13 "Hg10 mi
1:53 PM58 °FPassing clouds.12 mph26%30.14 "Hg10 mi
12:53 PM58 °FPassing clouds.12 mph27%30.16 "Hg10 mi
11:53 AM57 °FPassing clouds.12 mph26%30.16 "Hg10 mi
10:53 AM56 °FPassing clouds.15 mph27%30.16 "Hg10 mi
9:53 AM55 °FPassing clouds.22 mph29%30.17 "Hg10 mi
Weather by CustomWeather, © 2016

See weather overviewHow to use our weather pages